Regional Weather Roundup
Issued by NWS

Home | Current Version | Previous Version | Graphics & Text | Print | Product List | Glossary On
Versions: 1 2 3 4 5 6 7 8 9 10 11 12 13 14 15 16 17 18 19 20 21 22 23 24 25 26 27 28 29 30 31 32 33 34 35 36 37 38 39 40 41 42 43 44 45 46 47 48 49 50
000
ASUS43 KDMX 290303
RWRIA

WEATHER ROUNDUP FOR IOWA
NATIONAL WEATHER SERVICE DES MOINES IA
1000 PM CDT THU APR 28 2016

NOTE: "FAIR" INDICATES FEW OR NO CLOUDS BELOW 12,000 FEET WITH NO
SIGNIFICANT WEATHER AND/OR OBSTRUCTIONS TO VISIBILITY.

* - THESE STATIONS ARE NOT NWS STATIONS...THUS NOT UNDER NWS
QUALITY CONTROL.  THEY ALSO DO NOT REPORT WEATHER SUCH
AS PRECIPITATION OR FOG.

IAZ001>003-012>014-020>022-031>034-043>046-290400-
   NORTHWEST IOWA

CITY           SKY/WX    TMP DP  RH WIND       PRES   REMARKS
CARROLL *      CLOUDY    45  43  93 N9        30.05R
CHEROKEE *     CLOUDY    41  41 100 N5        30.08R
DENISON *      CLOUDY    45  43  93 N8        30.06R FOG
LE MARS *      CLOUDY    43  39  87 N7        30.11R
ORANGE CITY *  CLOUDY    39  37  93 N9        30.08R WCI  33
SHELDON *      CLOUDY    39  39 100 N10       30.08R FOG     WCI  32
SIOUX CITY     CLOUDY    45  39  79 N8        30.09R
SPENCER        CLOUDY    41  36  82 N9        30.08R
STORM LAKE *   CLOUDY    43  39  87 N12       30.07R
$$

IAZ055>058-069>071-079>083-090>094-290400-
   SOUTHWEST IOWA

CITY           SKY/WX    TMP DP  RH WIND       PRES   REMARKS
ATLANTIC *     CLOUDY    46  41  81 NW7       30.07R
AUDUBON *      CLOUDY    45  41  87 N6        30.08R
CLARINDA *       N/A    N/A N/A N/A MISG        N/A
COUNCIL BLFS * CLOUDY    45  43  93 N6        30.09R
CRESTON *      CLOUDY    46  43  87 NW8       30.08R
HARLAN  *      CLOUDY    45  41  87 NW8       30.11R
LAMONI         CLOUDY    49  43  80 NW12      30.06R
RED OAK *      CLOUDY    48  41  76 N7        30.09R
SHENANDOAH *   CLOUDY    48  45  87 N5        30.10R
$$

IAZ047>049-059>061-072>074-084-290400-
   CENTRAL IOWA

CITY           SKY/WX    TMP DP  RH WIND       PRES   REMARKS
AMES           CLOUDY    49  44  83 N7        30.04R
ANKENY *       CLOUDY    50  48  93 NW8       30.03R
BOONE *        CLOUDY    46  45  93 N9        30.03R
CHARITON *     CLOUDY    50  46  87 NW9       30.04R
DES MOINES     DRIZZLE   50  45  83 NW8       30.04R
GRINNELL*      CLOUDY    48  46  93 NE9       30.02R FOG
KNOXVILLE *    CLOUDY    50  48  93 NW6       30.02R
MARSHALLTOWN   CLOUDY    47  45  93 N9        30.02R
NEWTON *       CLOUDY    50  50 100 N9        30.02R
PELLA *        CLOUDY    50  49  95 NW7       30.04R
$$

IAZ004>006-015-016-023>025-035-036-290400-
   NORTH CENTRAL IOWA

CITY           SKY/WX    TMP DP  RH WIND       PRES   REMARKS
ALGONA *       CLOUDY    41  39  93 N7        30.07R
CLARION *      MIX PCPN  43  43 100 N10       30.05R
ESTHERVILLE    CLOUDY    39  37  92 N10       30.08R WCI  32
FORT DODGE *   CLOUDY    43  37  81 N7        30.06R
MASON CITY     CLOUDY    41  40  96 N12       30.07R FOG
FOREST CITY *  CLOUDY    41  39  93 N6        30.06R
WEBSTER CITY * CLOUDY    46  45  93 N13       30.03R
IOWA FALLS *   DRIZZLE   46  45  93 N7        30.04S
$$

IAZ007>011-017>019-026>030-037>042-050>054-066-290400-
   NORTHEAST IOWA

CITY           SKY/WX    TMP DP  RH WIND       PRES   REMARKS
CEDAR RAPIDS   CLOUDY    47  47 100 NE8       30.00R FOG
CHARLES CITY * CLOUDY    43  43 100 N10       30.06R
CLINTON *      CLOUDY    47  46  97 NE9       30.01R FOG
DECORAH *      CLOUDY    41  41 100 NE5       30.04R
DUBUQUE        CLOUDY    42  41  96 NE9       30.02R FOG
MONTICELLO *   CLOUDY    45  43  93 NE8       30.02R
OELWEIN *      CLOUDY    43  43 100 NE8       30.05R
WATERLOO       CLOUDY    45  41  86 NE8       30.03R
$$

IAZ064-065-067-068-078-290400-
   EAST CENTRAL IOWA

CITY           SKY/WX    TMP DP  RH WIND       PRES   REMARKS
DAVENPORT      CLOUDY    50  48  93 E6        29.99S FOG
IOWA CITY      CLOUDY    50  47  89 N6        30.02R
MT. PLEASANT * CLOUDY    55  50  82 W3        30.00R
MUSCATINE *    CLOUDY    54  48  82 NW3       30.00R
QUAD CITIES    CLOUDY    52  48  86 E6        29.99R FOG
$$

IAZ062-063-075>077-085>089-095>099-290400-
   SOUTHEAST IOWA

CITY           SKY/WX    TMP DP  RH WIND       PRES   REMARKS
BURLINGTON     CLOUDY    53  49  86 W6        30.00R
FAIRFIELD *    CLOUDY    54  48  82 W7        30.00R
FORT MADISON * CLOUDY    54  48  82 SW3       30.01S
KEOKUK *       CLOUDY    54  48  82 W5        30.01R
OSKALOOSA *    LGT RAIN  50  48  93 W8        30.01R
OTTUMWA        CLOUDY    51  47  86 W9        30.01R
WASHINGTON *   CLOUDY    54  54 100 NW3       30.01R
$$

ABBREVIATIONS USED IN REMARKS
   TC - TEMPERATURES IN CELSIUS
  WCI - WIND CHILL INDEX
   HX - HEAT INDEX
  VSB - VISIBILITY
$$




USA.gov is the U.S. government's official web portal to all federal, state and local government web resources and services.